Presure
139 133 136 132 128 141 156 160 159 148 145 138 127 178 162 144 158 166 160 161 155 171 147 148 147 158 135 206 187 169 210 217 217 170 144 215 138 143 226 81 240 251 163 72 147
130 134 132 142 127 139 133 150 162 152 143 152 150 166 170 148 170 169 169 172 145 179 163 149 139 133 165 184 149 155 156 166 230 455 229 262 421 299 124 318 277 164 131 145 457
133 141 134 135 132 135 143 151 133 130 153 148 157 160 156 155 156 175 178 156 132 184 175 155 157 169 179 160 192 206 216 171 330 392 424 165 336 383 135 270 404 92 404 165 88
120 139 132 124 140 135 129 138 146 150 132 167 140 154 146 153 156 169 183 170 143 175 167 172 154 173 198 197 210 189 163 200 450 162 382 394 373 201 216 275 349 425 103 167 161
136 133 141 139 139 124 134 124 143 151 137 164 144 148 144 154 165 151 172 164 158 122 167 153 155 188 187 199 217 152 126 157 256 414 336 382 373 119 279 174 341 313 140 91 134
143 125 148 128 140 131 122 148 137 141 140 155 161 146 160 148 160 153 149 172 132 168 147 174 190 193 145 156 144 176 173 175 490 403 280 167 318 292 312 104 373 407 132 250 335
127 140 137 147 136 144 137 147 133 140 142 149 155 149 155 145 161 146 165 159 121 151 153 181 199 181 171 216 186 170 143 428 488 451 159 260 103 180 357 363 139 403 268 376 323
131 140 133 140 138 139 144 134 143 152 134 142 144 160 145 168 155 161 155 162 143 159 173 158 226 207 127 181 204 222 217 438 387 376 393 138 200 366 360 129 389 392 399 213 161
135 136 133 137 130 128 139 135 139 151 143 150 151 153 148 163 130 154 150 176 159 151 155 173 216 202 211 186 211 214 298 440 401 377 268 184 117 351 324 374 133 304 440 296 149
130 141 138 143 143 145 151 139 127 137 141 135 156 165 141 161 162 155 155 149 162 152 172 185 191 213 214 164 113 208 449 440 450 378 214 119 182 431 459 399 192 127 352 368 320
136 144 143 133 135 142 146 128 132 134 149 163 133 150 149 142 143 163 162 177 177 175 175 131 202 216 176 152 148 186 340 447 438 434 141 149 416 413 433 170 455 335 252 221 326
137 136 135 138 149 152 137 151 127 125 148 155 157 160 167 149 153 168 165 139 173 174 188 192 196 200 241 226 174 164 281 452 376 423 348 194 343 317 359 344 400 319 330 245 107
123 133 138 158 145 149 140 141 141 152 150 149 155 151 150 150 145 172 160 165 175 186 188 197 194 201 208 204 202 158 455 395 311 390 399 386 381 378 331 167 170 134 309 199 333
134 144 148 138 134 139 136 142 138 135 141 156 145 135 138 133 151 164 168 170 171 178 183 194 199 192 154 158 188 170 370 390 391 407 385 295 360 368 177 143 146 183 323 283 221
131 135 144 159 140 129 134 144 146 141 136 153 163 145 154 151 168 176 175 171 135 176 187 132 173 206 130 233 137 180 447 145 376 381 377 186 172 149 139 134 313 143 166 322 350
135 128 133 129 142 145 135 133 142 141 155 148 159 161 160 157 154 172 163 165 167 190 164 164 213 173 234 210 165 336 287 414 394 291 364 370 335 293 367 166 152 204 142 256 175
160 160 155 159 144 146 157 153 152 161 154 171 166 158 158 161 143 162 167 171 177 157 142 199 155 221 221 163 153 423 236 411 382 377 350 364 218 352 329 237 271 224 240 123 134
153 157 156 157 152 159 157 156 156 147 156 165 152 154 161 136 161 172 179 177 161 167 203 121 196 214 142 197 240 360 424 413 387 381 344 134 341 350 153 135 136 171 329 333 156
153 156 158 152 155 159 161 159 161 160 160 156 169 155 181 156 170 165 179 166 179 188 205 194 114 206 182 213 268 401 288 398 381 345 361 343 229 347 136 140 203 349 340 348 163
158 159 159 152 160 155 161 160 169 166 159 161 169 179 165 150 184 195 194 157 159 167 109 166 217 226 247 246 254 399 369 424 380 356 232 135 132 336 343 356 331 312 315 311 206
156 181 156 156 185 176 162 161 186 154 152 151 159 179 143 169 178 171 184 164 194 165 199 126 204 146 222 232 287 305 351 434 407 395 354 132 295 205 331 331 366 313 307 329 323
190 188 163 164 177 178 160 159 179 189 167 167 194 162 183 154 178 198 197 196 203 166 222 139 103 238 237 269 283 335 302 274 422 391 122 342 297 160 340 345 339 349 342 321 321
176 165 180 183 185 176 200 178 162 183 153 187 186 186 163 178 182 181 203 200 198 130 119 221 202 235 206 190 264 309 339 414 445 397 322 135 283 324 324 334 345 300 334 311 304
191 181 188 200 181 170 183 189 186 180 182 174 194 196 190 181 185 180 196 208 169 181 218 163 220 215 239 249 317 312 369 414 438 127 351 130 330 331 328 323 343 337 359 309 310
181 142 187 179 185 188 186 185 184 191 177 179 171 174 191 186 188 192 184 198 205 184 221 188 197 224 235 222 312 270 411 405 394 403 313 327 291 314 315 312 318 341 342 369 315
179 182 194 187 188 180 191 188 182 194 181 179 182 190 197 189 178 198 198 140 200 133 220 235 227 215 252 207 294 292 255 260 408 438 136 330 195 299 311 311 314 331 341 362 346
210 172 182 161 178 179 176 175 189 166 195 178 175 180 171 175 196 200 169 196 213 205 222 220 185 230 237 275 267 284 342 417 393 392 137 325 280 314 304 296 301 317 323 340 366
Wind_Speed
26 21 27 24 27 32 44 48 35 33 36 40 36 58 50 41 57 57 54 52 35 57 45 39 40 60 70 95 81 82 97 103 77 19 44 48 38 50 36 26 30 34 20 8 52
23 25 25 35 32 35 36 47 48 37 40 47 47 52 61 48 68 62 60 61 29 65 46 35 58 67 74 78 74 62 55 70 90 57 55 28 29 40 41 22 35 24 54 49 56
28 35 30 31 33 36 41 47 38 38 45 47 56 57 57 58 59 75 72 41 35 76 66 41 46 69 79 67 87 109 113 66 57 50 35 57 17 18 12 18 25 38 38 44 18
29 38 34 34 39 41 40 41 47 51 43 59 47 57 53 60 62 72 83 62 30 65 47 53 49 74 98 101 121 81 60 89 46 32 31 22 18 49 44 20 20 25 27 46 50
40 38 44 42 41 40 42 40 50 54 50 66 54 57 54 63 72 49 73 62 49 40 43 48 56 86 96 101 120 61 14 26 25 34 17 19 16 39 15 16 18 26 50 32 42
46 38 51 38 44 44 44 54 49 52 54 65 71 62 75 57 68 56 42 73 29 56 33 69 88 86 71 71 56 82 80 67 23 35 27 39 12 22 17 18 22 27 59 49 65
43 49 48 59 43 55 51 54 51 56 58 64 70 66 69 53 73 45 74 55 33 39 34 82 91 63 67 119 82 72 20 41 12 18 36 17 40 32 21 25 38 35 33 76 91
47 54 52 51 49 52 54 53 59 65 53 62 62 79 57 81 71 73 58 64 43 54 73 60 125 105 26 79 105 129 84 41 29 29 16 14 27 15 22 39 32 40 58 54 66
55 56 56 55 49 51 55 56 61 67 64 72 71 71 66 79 34 66 50 91 57 57 66 69 118 93 105 89 122 122 48 37 34 25 19 21 27 17 23 27 43 46 55 74 50
55 64 64 68 61 60 63 61 53 62 64 56 79 87 56 79 80 67 68 44 75 62 62 96 86 120 108 61 8 126 38 31 24 29 21 28 17 14 7 12 43 46 68 76 76
63 69 73 63 54 59 64 58 60 61 74 89 48 72 71 60 56 85 79 91 92 84 70 48 115 113 57 41 6 68 95 24 18 15 21 24 16 18 13 29 3 62 64 65 90
67 67 68 72 76 72 60 74 56 50 74 80 82 83 91 69 71 87 77 39 90 86 102 96 84 95 136 130 66 36 35 17 18 16 8 8 12 11 5 19 22 71 78 63 37
50 64 71 84 72 74 67 67 70 80 76 75 80 75 74 73 57 96 81 86 98 108 106 108 99 109 97 97 97 30 15 24 12 10 10 6 15 12 3 28 29 36 75 56 90
69 79 84 71 67 72 66 72 67 65 72 85 71 52 54 44 72 92 92 96 94 96 97 109 99 97 44 31 67 29 7 24 13 9 6 8 11 15 17 19 23 36 81 78 73
68 74 79 88 75 60 69 78 79 74 63 82 93 73 81 75 98 108 107 96 50 98 111 40 63 119 21 135 28 37 4 27 14 9 5 20 24 20 23 22 65 29 48 88 87
75 55 65 58 80 83 72 65 77 75 88 80 92 95 92 91 78 105 89 86 94 118 73 63 131 79 137 105 33 103 90 13 13 10 7 10 13 17 20 38 35 45 33 75 53
98 95 93 94 77 83 95 89 89 98 84 104 105 91 86 93 49 91 101 98 113 52 49 117 62 134 129 33 36 42 41 11 11 8 10 12 24 14 12 15 45 60 67 45 41
95 96 94 96 89 97 98 97 97 79 96 102 85 86 98 51 89 111 119 114 65 81 131 20 114 121 25 71 89 84 16 11 14 8 8 26 17 14 28 33 34 42 83 91 57
95 101 100 92 94 97 103 103 100 101 103 92 110 76 109 75 111 92 119 98 114 124 128 116 7 115 55 110 122 54 96 19 16 16 12 7 25 18 34 37 46 78 87 84 43
100 101 104 90 102 96 103 103 108 103 102 105 109 111 103 59 119 119 123 60 72 86 7 72 131 136 132 138 117 59 61 13 15 6 23 27 26 17 19 17 64 61 71 74 87
93 102 97 97 102 105 105 103 104 89 91 79 99 100 47 111 111 107 117 76 122 80 123 26 114 52 111 108 122 107 68 15 12 12 11 25 22 24 19 24 17 78 71 80 81
100 102 99 101 106 100 103 101 108 102 107 109 103 81 109 61 113 119 124 125 128 89 134 48 16 119 124 128 119 82 90 81 16 11 21 16 17 31 17 20 26 51 78 81 78
94 94 97 100 101 103 91 99 98 100 67 103 107 111 89 112 115 106 120 124 127 19 29 134 92 120 81 56 107 96 77 23 12 17 19 25 18 21 21 19 22 59 64 82 80
104 99 102 98 99 99 103 100 100 100 101 104 107 108 112 112 115 101 120 123 68 83 132 66 119 104 125 117 98 97 59 24 13 19 30 26 24 25 23 17 22 35 34 80 90
94 73 103 96 97 100 103 102 99 102 100 104 100 99 110 111 118 105 111 125 126 95 120 99 82 120 120 77 95 100 38 28 18 19 33 27 21 24 25 22 20 19 35 38 89
91 89 105 101 98 98 105 102 101 104 105 103 106 109 112 109 108 116 120 44 124 46 111 110 112 100 123 52 96 98 71 74 20 20 21 35 25 23 27 26 21 18 20 33 77
108 90 91 83 91 94 99 94 97 78 100 101 100 103 88 100 114 118 67 115 110 113 107 105 79 114 118 107 99 93 68 26 18 16 24 35 31 35 33 28 26 21 22 21 31
Wind_Direction
308 304 309 301 292 318 328 335 322 317 313 306 305 330 318 305 318 320 311 313 314 313 290 293 287 309 283 338 330 305 324 336 326 273 246 280 250 259 277 253 252 250 187 227 206
290 301 298 314 290 316 303 317 329 318 310 316 311 323 326 310 326 319 314 314 286 320 324 295 290 283 316 328 289 300 299 300 325 317 308 277 299 256 226 247 248 215 200 212 197
298 307 296 301 297 304 318 322 309 302 311 313 319 318 314 317 316 325 322 308 279 327 320 317 311 321 326 306 332 332 334 293 310 316 315 246 290 269 156 217 216 237 205 197 225
283 301 295 290 305 308 302 311 316 317 306 321 309 312 309 315 316 320 326 316 288 321 330 336 312 326 335 339 336 330 308 304 321 263 304 299 273 242 244 246 215 199 209 186 190
292 291 297 299 301 293 300 301 311 316 308 320 307 311 309 314 319 314 325 320 316 288 342 311 310 339 338 336 339 306 288 301 275 323 303 294 275 181 215 182 218 217 196 225 209
295 286 298 289 300 295 300 309 305 306 307 316 318 310 316 313 317 319 316 321 286 332 297 334 329 335 298 320 327 303 299 297 330 325 281 264 239 244 223 242 200 193 195 184 171
292 289 292 296 299 306 301 308 301 307 308 310 313 309 310 317 315 318 319 324 285 323 321 333 339 348 308 338 319 312 315 338 341 333 267 269 218 249 215 201 186 190 180 168 180
288 289 290 294 295 296 302 300 303 307 306 306 308 312 313 318 315 316 321 326 316 318 338 311 330 338 332 325 345 345 341 340 339 331 328 241 253 219 210 180 194 183 181 194 196
286 289 289 290 295 297 299 302 300 304 304 307 308 309 313 316 312 320 323 322 333 325 322 326 330 339 339 322 347 344 336 340 340 328 284 242 166 231 208 206 185 193 191 180 203
288 287 287 288 290 295 300 297 305 302 305 312 308 310 320 316 317 322 325 329 317 317 342 328 348 336 344 330 304 344 340 341 341 335 255 192 173 37 11 204 207 202 174 170 178
284 282 285 292 295 296 298 301 300 304 304 305 319 310 313 318 322 317 322 320 327 333 341 302 334 337 327 312 314 311 354 349 357 1 226 244 55 55 28 227 171 169 183 182 179
282 286 286 289 290 294 297 297 302 308 303 303 306 310 313 317 319 317 325 309 327 333 332 336 339 351 334 340 337 334 338 25 360 70 88 228 67 131 42 187 185 174 174 192 241
290 286 284 285 293 291 296 296 298 298 301 304 307 310 312 315 319 318 324 326 326 325 330 331 336 343 348 344 342 311 1 347 311 40 82 110 94 101 188 218 219 196 180 203 179
281 280 279 289 296 293 296 295 297 303 305 301 309 309 318 317 318 317 322 323 324 331 331 334 329 348 316 351 343 283 311 343 332 111 51 156 142 142 227 208 213 220 172 187 196
281 282 284 282 288 295 295 294 296 299 304 302 304 309 309 313 313 314 316 322 307 330 328 338 344 335 320 338 290 341 181 271 310 320 325 224 226 236 237 208 183 204 216 182 183
277 283 282 291 286 286 293 296 297 299 299 304 305 307 308 308 312 314 323 327 318 324 329 330 332 333 332 345 311 354 355 236 307 287 303 167 205 203 189 222 229 202 220 191 207
274 277 282 284 286 288 289 291 294 296 299 300 303 305 307 311 321 318 319 321 320 335 312 330 330 332 335 313 295 348 330 300 319 281 307 199 223 204 198 223 197 200 196 227 227
276 279 281 282 286 287 288 291 294 296 299 301 300 307 308 304 316 312 313 318 328 336 320 294 332 335 319 334 339 351 332 276 329 306 278 236 208 197 236 240 237 223 188 192 215
275 278 279 283 286 286 286 289 293 294 297 299 299 303 304 316 309 313 311 322 317 318 322 329 303 330 321 334 345 354 353 320 326 303 220 256 228 210 236 240 221 186 188 193 227
272 274 276 283 282 285 286 289 290 291 296 298 299 301 303 314 307 311 312 316 309 316 287 326 328 332 333 336 346 350 347 288 306 266 231 233 243 221 218 206 198 195 190 190 201
271 271 277 280 280 280 284 288 289 293 296 301 301 301 307 304 309 312 312 324 315 317 323 304 333 329 342 335 344 347 347 300 277 236 216 247 233 240 205 205 205 199 200 198 195
268 271 272 274 277 281 284 286 288 291 290 292 301 303 302 313 305 310 311 312 314 317 321 315 281 332 331 338 342 351 346 348 247 244 255 200 226 236 185 215 208 198 200 195 197
265 270 273 276 279 279 284 283 287 292 292 298 298 299 305 303 307 309 313 312 314 305 299 322 331 331 343 326 342 343 345 335 271 231 196 244 199 175 177 181 189 199 201 196 198
267 269 273 274 278 281 284 288 289 290 294 294 299 298 299 304 306 311 312 314 313 322 319 317 325 332 331 337 346 348 343 334 273 246 195 254 188 183 176 185 195 193 193 204 202
267 279 272 276 278 282 284 286 288 290 291 294 298 301 301 303 304 309 311 311 314 317 320 332 332 327 330 335 346 343 343 331 310 233 206 215 202 184 177 178 194 196 198 201 204
266 270 268 273 276 281 282 283 287 286 290 293 296 299 300 302 307 307 309 305 313 302 320 326 327 326 330 337 345 344 344 346 304 243 241 211 242 204 179 177 183 188 179 194 203
257 268 268 277 273 275 280 284 286 290 288 291 296 298 308 306 304 307 307 313 315 316 323 324 325 326 327 335 337 342 341 328 306 260 242 205 197 180 172 179 184 189 183 186 204